星链-33624 (STARLINK-33624)

导读

STARLINK-33624是美国太空探索技术公司Starlink星座的成员,于2025年2月21日发射升空,星链星座旨在为全球提供高速低延迟卫星互联网服务,覆盖偏远地区与网络基础设施薄弱区域,该卫星入轨后承担星座组网运营任务,助力全球卫星宽带网络服务覆盖的扩展。

基本信息
目录编号:
63071
目录名称:
STARLINK-33624
国际标识:
2025-035V
轨道中心:
EARTH
卫星名称:
星链-33624
卫星全名:
星链-33624 (STARLINK-33624)
卫星状态:
在轨 (已飞行560 天)
发射日期:
2025-02-21 UTC
国别 :
美国 (US)
星等 :
--
轨道信息
数据来源 国际轨道数据 AOE轨道数据
星历时间 2026-09-03T16:00:02+0800
21小时前
查看轨道信息
2026-09-03T23:00:00+0800
14小时前
查看轨道信息
半长轴 6841.111km 6840.945km
偏心率 0.0005743 0.0006074
轨道倾角 42.998° 42.998°
近地点辐角 131.921° 137.124°
升交点赤经 218.231° 216.566°
平近点角 198.914° 6.549°
近地点 459.045km 458.652km
远地点 466.903km 466.964km
周期 93.853分钟 93.850分钟
每日圈数 15.343092 15.34365
详细信息
固有亮度:
5
最大亮度:
2.5
卫星平台:
Starlink V1.0
覆盖范围:
全球
运营商:
太空探索技术公司
运营商所在国:
美国
制造商(研发单位):
太空探索技术公司
制造商所在国:
美国
使用方式:
暂无
卫星简介
Starlink 计划是 SpaceX 推出的全球卫星互联网项目,通过发射低轨道卫星,为全球尤其是偏远地区提供高速、低延迟的互联网服务。自 2019 年起,Starlink 已部署数千颗卫星,旨在缩小全球数字鸿沟,推动互联网普及。该项目还为军事、航空等行业提供通信支持,带来广泛经济效益。
2D轨道图
3D轨道图
轨道高度分析图
轨道倾角分析图
轨道综合分析图
查看轨道综合分析图
交会数据列表
事件ID 空间交会对象 最接近时刻(TCA) 交会距离 交会风险概率(CRP) 交会风险指数(CRI) 操作
CDM_260903-191005-266906-307121
2026-09-03T
19:10:01+0000
0.925 km
远距离
2.87633E-5 中风险 0.64
CDM_260827-212006-307106-851421
2026-08-27T
21:20:05+0000
0.964 km
远距离
2.517972E-5 中风险 0.63
CDM_260828-040006-307106-816722
2026-08-28T
04:00:11+0000
1.176 km
极远距离
8.544182E-6 低风险 0.54
CDM_260905-071105-327206-307121
2026-09-05T
07:11:08+0000
1.718 km
极远距离
3.382276E-6 低风险 0.46
CDM_260905-141606-307106-370921
2026-09-05T
14:16:16+0000
1.771 km
极远距离
2.867293E-6 低风险 0.44
CDM_260904-200306-195606-307121
2026-09-04T
20:03:32+0000
1.930 km
极远距离
2.656374E-6 低风险 0.43
CDM_260903-225005-300906-307121
2026-09-03T
22:50:55+0000
2.058 km
极远距离
2.191348E-6 低风险 0.42
CDM_260905-132406-307106-627521
2026-09-05T
13:24:25+0000
2.059 km
极远距离
2.13539E-6 低风险 0.42
CDM_260828-053306-307106-816721
2026-08-28T
05:33:58+0000
1.862 km
极远距离
2.023868E-6 低风险 0.41
CDM_260828-022606-307106-816722
2026-08-28T
02:26:23+0000
1.953 km
极远距离
1.792384E-6 低风险 0.4